Location: *
(50.8160°S, 176.0219°W)
Time: 03:38:45
(UTC+00:00)

Cosmos 1727 Rocket - Pass Details

Date: 19 May 2026
Orbit: 959 x 997 km, 82.9° (Epoch: 8 June)

Event Time Altitude Azimuth Distance (km) Brightness Sun altitude
Rises 17:39:33 0° 195° (SSW) 3,730 6.8 -15.5°
Reaches altitude 10° 17:42:13 10° 202° (SSW) 2,781 6.1 -15.0°
Maximum altitude 17:48:03 39° 268° (W) 1,461 4.4 -14.1°
Drops below altitude 10° 17:53:53 10° 334° (NNW) 2,770 6.3 -13.3°
Sets 17:56:33 0° 341° (NNW) 3,713 7.0 -12.9°
